Grand Rapids, MN

4:50 PM CDT on October 20, 2017 (GMT -0500)
Grand Rapids-Itasca County-Newstrom Field

Weather History for KGPZ - October, 2013

Change the Weather History Date:

Tuesday, October 8, 2013

  Actual Average Record
Temperature  
Mean Temperature 57 °F -  
Max Temperature 73 °F 57 °F 80 °F (1936)
Min Temperature 41 °F 35 °F 19 °F (1929)
Degree Days  
Heating Degree Days 8    
Growing Degree Days 7 (Base 50)    
Moisture  
Dew Point 42 °F    
Average Humidity 59    
Maximum Humidity 81    
Minimum Humidity 36    
Precipitation  
Precipitation 0.00 in - - ()
Sea Level Pressure  
Sea Level Pressure 29.79 in    
Wind  
Wind Speed 12 mph (SSE)    
Max Wind Speed 26 mph    
Max Gust Speed 38 mph    
Visibility 10 miles    
Events      
Averages and records for this station are not official NWS values.
T = Trace of Precipitation, MM = Missing Value Source: NWS Daily Summary

Daily Weather History Graph

Daily Weather History Graph

Search for Another Location

Airport or City:

Trip Planner

Search our weather history database for the weather conditions in past years. The results will help you decide how hot, cold, wet, or windy it might be!

Date:

Astronomy

Oct. 08, 2013 Rise Set
Actual Time 7:22 AM CDT 6:39 PM CDT
Civil Twilight 6:52 AM CDT 7:09 PM CDT
Nautical Twilight 6:16 AM CDT 7:45 PM CDT
Astronomical Twilight 5:41 AM CDT 8:20 PM CDT
Moon 11:32 AM CDT (10/8) 9:00 PM CDT (10/8)
Length of Visible Light 12h 17m
Length of Day
11h 16m
Waxing Crescent, 16% of the Moon is Illuminated
Oct 8
Waxing Crescent
Oct 11
First Quarter
Oct 18
Full
Oct 26
Last Quarter
Nov 3
New

Hourly Weather History & Observations

Time (CDT) Temp. Windchill Dew Point Humidity Pressure Visibility Wind Dir Wind Speed Gust Speed Precip Events Conditions
12:15 AM 41.0 °F 38.0 °F 35.6 °F 81% 29.92 in 10.0 mi SSE 4.6 mph - N/A   Clear
12:35 AM 41.0 °F 37.1 °F 35.6 °F 81% 29.92 in 10.0 mi SSE 5.8 mph - N/A   Clear
12:55 AM 42.8 °F 39.3 °F 37.4 °F 81% 29.91 in 10.0 mi SSE 5.8 mph - N/A   Clear
1:15 AM 42.8 °F 38.6 °F 37.4 °F 81% 29.91 in 10.0 mi SSE 6.9 mph - N/A   Clear
1:35 AM 42.8 °F 38.0 °F 37.4 °F 81% 29.91 in 10.0 mi SSE 8.1 mph - N/A   Clear
1:55 AM 44.6 °F 39.7 °F 37.4 °F 76% 29.90 in 10.0 mi SSE 9.2 mph - N/A   Clear
2:15 AM 44.6 °F 39.7 °F 37.4 °F 76% 29.90 in 10.0 mi SSE 9.2 mph - N/A   Clear
2:35 AM 44.6 °F 39.7 °F 37.4 °F 76% 29.90 in 10.0 mi SSE 9.2 mph - N/A   Clear
2:55 AM 44.6 °F 39.7 °F 37.4 °F 76% 29.89 in 10.0 mi SSE 9.2 mph - N/A   Clear
3:15 AM 44.6 °F 39.2 °F 37.4 °F 76% 29.89 in 10.0 mi SSE 10.4 mph - N/A   Clear
3:35 AM 44.6 °F 39.7 °F 37.4 °F 76% 29.89 in 10.0 mi SSE 9.2 mph - N/A   Clear
3:55 AM 44.6 °F 39.7 °F 37.4 °F 76% 29.88 in 10.0 mi SSE 9.2 mph - N/A   Clear
4:15 AM 44.6 °F 39.7 °F 37.4 °F 76% 29.87 in 10.0 mi SSE 9.2 mph - N/A   Clear
4:35 AM 44.6 °F 39.2 °F 37.4 °F 76% 29.87 in 10.0 mi SSE 10.4 mph - N/A   Clear
4:55 AM 44.6 °F 39.2 °F 37.4 °F 76% 29.86 in 10.0 mi SSE 10.4 mph - N/A   Clear
5:15 AM 44.6 °F 38.8 °F 37.4 °F 76% 29.86 in 10.0 mi SSE 11.5 mph - N/A   Clear
5:35 AM 44.6 °F 39.2 °F 37.4 °F 76% 29.85 in 10.0 mi SSE 10.4 mph - N/A   Clear
5:55 AM 44.6 °F 39.7 °F 37.4 °F 76% 29.85 in 10.0 mi SE 9.2 mph - N/A   Clear
6:15 AM 44.6 °F 40.7 °F 37.4 °F 76% 29.85 in 10.0 mi SE 6.9 mph - N/A   Clear
6:35 AM 44.6 °F 39.7 °F 37.4 °F 76% 29.84 in 10.0 mi SE 9.2 mph - N/A   Clear
6:55 AM 44.6 °F 40.2 °F 37.4 °F 76% 29.84 in 10.0 mi SE 8.1 mph - N/A   Clear
7:15 AM 42.8 °F 38.6 °F 37.4 °F 81% 29.83 in 10.0 mi SE 6.9 mph - N/A   Clear
7:35 AM 42.8 °F 37.5 °F 37.4 °F 81% 29.82 in 10.0 mi SE 9.2 mph - N/A   Clear
7:55 AM 44.6 °F 39.2 °F 37.4 °F 76% 29.82 in 10.0 mi SE 10.4 mph - N/A   Clear
8:15 AM 44.6 °F 39.7 °F 39.2 °F 81% 29.81 in 10.0 mi SSE 9.2 mph - N/A   Clear
8:35 AM 46.4 °F 41.1 °F 39.2 °F 76% 29.80 in 10.0 mi SE 11.5 mph - N/A   Clear
8:55 AM 48.2 °F - 39.2 °F 71% 29.79 in 10.0 mi SE 12.7 mph 17.3 mph N/A   Clear
9:15 AM 50.0 °F - 41.0 °F 71% 29.78 in 10.0 mi SSE 16.1 mph 21.9 mph N/A   Clear
9:35 AM 53.6 °F - 41.0 °F 62% 29.78 in 10.0 mi SSE 17.3 mph 23.0 mph N/A   Clear
9:55 AM 55.4 °F - 42.8 °F 63% 29.77 in 10.0 mi SSE 17.3 mph 25.3 mph N/A   Clear
10:15 AM 57.2 °F - 42.8 °F 59% 29.77 in 10.0 mi SSE 18.4 mph 21.9 mph N/A   Clear
10:35 AM 57.2 °F - 42.8 °F 59% 29.75 in 10.0 mi SSE 16.1 mph - N/A   Clear
10:55 AM 60.8 °F - 42.8 °F 52% 29.75 in 10.0 mi SSE 23.0 mph 29.9 mph N/A   Clear
11:15 AM 62.6 °F - 42.8 °F 48% 29.75 in 10.0 mi South 19.6 mph 26.5 mph N/A   Clear
11:35 AM 62.6 °F - 44.6 °F 52% 29.74 in 10.0 mi SSE 20.7 mph 25.3 mph N/A   Clear
11:55 AM 64.4 °F - 44.6 °F 49% 29.74 in 10.0 mi South 17.3 mph 23.0 mph N/A   Clear
12:15 PM 66.2 °F - 44.6 °F 46% 29.74 in 10.0 mi South 19.6 mph 27.6 mph N/A   Clear
12:35 PM 66.2 °F - 44.6 °F 46% 29.74 in 10.0 mi South 18.4 mph 21.9 mph N/A   Clear
12:55 PM 68.0 °F - 44.6 °F 43% 29.73 in 10.0 mi South 19.6 mph 32.2 mph N/A   Clear
1:15 PM 69.8 °F - 44.6 °F 40% 29.73 in 10.0 mi South 17.3 mph 26.5 mph N/A   Clear
1:35 PM 69.8 °F - 44.6 °F 40% 29.72 in 10.0 mi South 21.9 mph 27.6 mph N/A   Clear
1:55 PM 71.6 °F - 44.6 °F 38% 29.71 in 10.0 mi South 20.7 mph 28.8 mph N/A   Clear
2:15 PM 71.6 °F - 44.6 °F 38% 29.70 in 10.0 mi South 21.9 mph 32.2 mph N/A   Clear
2:35 PM 71.6 °F - 46.4 °F 41% 29.70 in 10.0 mi South 23.0 mph 28.8 mph N/A   Clear
2:55 PM 73.4 °F - 44.6 °F 36% 29.70 in 10.0 mi South 25.3 mph 38.0 mph N/A   Clear
3:15 PM 73.4 °F - 44.6 °F 36% 29.70 in 10.0 mi South 24.2 mph 29.9 mph N/A   Clear
3:35 PM 71.6 °F - 44.6 °F 38% 29.70 in 10.0 mi South 26.5 mph 33.4 mph N/A   Clear
3:55 PM 73.4 °F - 44.6 °F 36% 29.70 in 10.0 mi South 20.7 mph 28.8 mph N/A   Clear
4:15 PM 71.6 °F - 44.6 °F 38% 29.70 in 10.0 mi South 20.7 mph 31.1 mph N/A   Clear
4:35 PM 71.6 °F - 46.4 °F 41% 29.71 in 10.0 mi South 20.7 mph 31.1 mph N/A   Clear
4:55 PM 71.6 °F - 46.4 °F 41% 29.71 in 10.0 mi South 19.6 mph 28.8 mph N/A   Clear
5:15 PM 71.6 °F - 46.4 °F 41% 29.72 in 10.0 mi South 19.6 mph 26.5 mph N/A   Clear
5:35 PM 71.6 °F - 46.4 °F 41% 29.72 in 10.0 mi South 20.7 mph 27.6 mph N/A   Clear
5:55 PM 69.8 °F - 46.4 °F 43% 29.73 in 10.0 mi South 18.4 mph 25.3 mph N/A   Clear
6:15 PM 69.8 °F - 46.4 °F 43% 29.73 in 10.0 mi South 16.1 mph 24.2 mph N/A   Clear
6:35 PM 69.8 °F - 46.4 °F 43% 29.73 in 10.0 mi South 19.6 mph 25.3 mph N/A   Clear
6:55 PM 68.0 °F - 46.4 °F 46% 29.74 in 10.0 mi South 17.3 mph - N/A   Clear
7:15 PM 66.2 °F - 44.6 °F 46% 29.74 in 10.0 mi South 15.0 mph 20.7 mph N/A   Clear
7:35 PM 66.2 °F - 44.6 °F 46% 29.75 in 10.0 mi South 18.4 mph 24.2 mph N/A   Clear
7:55 PM 66.2 °F - 44.6 °F 46% 29.75 in 10.0 mi South 16.1 mph 23.0 mph N/A   Clear
8:15 PM 66.2 °F - 44.6 °F 46% 29.76 in 10.0 mi South 20.7 mph 24.2 mph N/A   Clear
8:35 PM 64.4 °F - 44.6 °F 49% 29.76 in 10.0 mi South 17.3 mph 25.3 mph N/A   Clear
8:55 PM 64.4 °F - 44.6 °F 49% 29.77 in 10.0 mi South 12.7 mph - N/A   Clear
9:15 PM 64.4 °F - 44.6 °F 49% 29.77 in 10.0 mi South 13.8 mph 19.6 mph N/A   Clear
9:35 PM 62.6 °F - 44.6 °F 52% 29.78 in 10.0 mi South 13.8 mph 19.6 mph N/A   Clear
9:55 PM 62.6 °F - 44.6 °F 52% 29.79 in 10.0 mi South 13.8 mph 19.6 mph N/A   Clear
10:15 PM 62.6 °F - 44.6 °F 52% 29.79 in 10.0 mi South 15.0 mph - N/A   Clear
10:35 PM 62.6 °F - 44.6 °F 52% 29.80 in 10.0 mi South 12.7 mph - N/A   Clear
10:55 PM 62.6 °F - 44.6 °F 52% 29.80 in 10.0 mi South 13.8 mph - N/A   Clear
11:15 PM 60.8 °F - 44.6 °F 55% 29.81 in 10.0 mi South 12.7 mph - N/A   Clear
11:35 PM 60.8 °F - 44.6 °F 55% 29.81 in 10.0 mi South 11.5 mph - N/A   Clear
11:55 PM 60.8 °F - 44.6 °F 55% 29.81 in 10.0 mi South 11.5 mph - N/A   Clear